map of YMS home
Great Circle Mapper logo
YMS - Airport
Location
City:  Yurimaguas, Perú
Name:Moisés Benzaquén Rengifo Airport
ICAO / IATA:SPMS / YMS

Details
Type:Airport (Aerodrome, Airfield)
Latitude:5°53'38"S (-5.893771)
Longitude:76°07'06"W (-76.118210)
Datum:WGS 1984
Elevation:587 ft (179 m)
Runways:1
Longest:5912 × 98 ft (1802 × 30 m), paved

Time
Time Zone:UTC-5
Local Time:

Weather
METAR:SPMS 212300Z 00000KT 9999 VCSH SCT015 BKN080 27/23 Q1011 RMK BIRD HAZARD 09/27 PP000
TAF:SPMS 211700Z 2118/2218 VRB02KT 9999 BKN020 SCT100 TX32/2119Z TN23/2210Z
TEMPO 2118/2122 33008KT 8000 VCSH BKN015 FEW025TCU
TEMPO 2208/2212 1000 BR BKN008 BKN080
BECMG 2213/2215 30003KT BKN015

Related Locations
Nearby:
Farthest:RDN: 12388 mi / 19937 km
Redang, Pulau Redang, MY

Find:

   beyond  
but within

Other Information
Maps:
NOTAMs:
Links:
Sources:

  
flag of Perú   

Sectional Chart

Flight Planning
at skyvector.com

Satellite Image

Google Maps Satellite View

 

Copyright © 2004-2014 Karl L. Swartz. All rights reserved.
The Great Circle Mapper name and logo are trademarks of the Great Circle Mapper.
All other trademarks mentioned herein belong to their respective owners.
Please see credits for attibutions and further copyright information.

  Follow gcmap on Facebook Follow gcmap on Twitter

hCard Microformat

Geo Microformat